Location: Devore Heights
(34.2372°N, 117.4156°W)
Time: 23:07:15
(UTC+00:00)

Transit 2A Rocket - All Passes

Search period start: 11 September 2024 00:00
Search period end: 21 September 2024 00:00
Orbit: 582 x 910 km, 66.7° (Epoch: 11 September)

Date Brightness Start Highest point End Pass type
(mag) Time Alt. Az. Time Alt. Az. Time Alt. Az.
11 Sep - 07:17:35 10° S 07:23:01 47° ESE 07:28:46 10° NE visible
11 Sep - 09:00:57 10° WSW 09:05:46 26° NW 09:10:45 10° N visible
11 Sep - 16:05:51 10° N 16:09:46 18° NE 16:13:28 10° E daylight
11 Sep - 17:47:12 10° NNW 17:52:47 61° WSW 17:57:52 10° SSE daylight
12 Sep - 06:34:22 10° SSE 06:38:58 26° ESE 06:43:48 10° NE night (unlit)
12 Sep - 08:15:40 10° SW 08:21:10 43° WNW 08:26:56 10° NNE visible
12 Sep - 15:23:32 10° NNE 15:24:54 11° NE 15:26:14 10° ENE daylight
12 Sep - 17:02:49 10° NNW 17:08:32 72° ENE 17:13:42 10° SSE daylight
12 Sep - 18:48:11 10° W 18:50:07 12° W 18:52:01 10° WSW daylight
13 Sep - 05:52:24 10° SE 05:55:03 13° ESE 05:57:46 10° ENE night (unlit)
13 Sep - 07:30:59 10° SSW 07:36:44 76° WNW 07:42:50 10° NNE visible
13 Sep - 09:17:46 10° WNW 09:20:17 13° NW 09:22:50 10° NNW visible
13 Sep - 16:18:44 10° NNW 16:24:05 39° ENE 16:28:58 10° SE daylight
13 Sep - 18:01:53 10° NW 18:06:14 24° WSW 18:10:18 10° SSW daylight
14 Sep - 06:46:49 10° SSW 06:52:28 61° ESE 06:58:26 10° NNE visible
14 Sep - 08:31:05 10° W 08:35:27 21° NW 08:39:56 10° N visible
14 Sep - 15:34:59 10° N 15:39:27 23° NE 15:43:38 10° ESE daylight
14 Sep - 17:16:51 10° NW 17:22:12 46° WSW 17:27:04 10° S daylight
15 Sep - 06:03:16 10° S 06:08:20 33° ESE 06:13:40 10° NE night (unlit)
15 Sep - 07:45:29 10° WSW 07:50:46 34° NW 07:56:17 10° N visible
15 Sep - 14:51:52 10° NNE 14:54:38 14° NE 14:57:19 10° ENE daylight
15 Sep - 16:32:19 10° NNW 16:38:00 87° WSW 16:43:09 10° SSE daylight
16 Sep - 05:20:34 10° SE 05:24:20 18° ESE 05:28:14 10° ENE night (unlit)
16 Sep - 07:00:32 10° SW 07:06:15 59° WNW 07:12:16 10° NNE visible
16 Sep - 15:48:06 10° NNW 15:53:37 50° ENE 15:58:38 10° SE daylight
16 Sep - 17:31:58 10° WNW 17:35:30 18° WSW 17:38:53 10° SW daylight
17 Sep - 06:16:07 10° SSW 06:21:53 79° ESE 06:27:59 10° NNE night (unlit)
17 Sep - 08:01:22 10° W 08:05:07 17° NW 08:08:56 10° N visible
17 Sep - 15:04:10 10° N 15:09:03 28° NE 15:13:33 10° ESE daylight
17 Sep - 16:46:33 10° NW 16:51:32 34° WSW 16:56:05 10° S daylight
18 Sep - 05:32:15 10° S 05:37:41 43° ESE 05:43:22 10° NE night (unlit)
18 Sep - 07:15:22 10° WSW 07:20:20 28° NW 07:25:30 10° N visible
18 Sep - 14:20:41 10° N 14:24:17 17° NE 14:27:43 10° E daylight
18 Sep - 16:01:49 10° NNW 16:07:23 67° WSW 16:12:25 10° SSE daylight
19 Sep - 04:49:06 10° SSE 04:53:36 24° ESE 04:58:17 10° NE night (unlit)
19 Sep - 06:30:08 10° SW 06:35:44 47° WNW 06:41:36 10° NNE visible
19 Sep - 15:17:27 10° NNW 15:23:04 66° ENE 15:28:09 10° SE daylight
19 Sep - 17:02:25 10° WNW 17:04:43 13° WSW 17:06:56 10° SW daylight
20 Sep - 04:07:23 10° SE 04:09:38 12° E 04:11:56 10° ENE night (unlit)
20 Sep - 05:45:28 10° SSW 05:51:17 82° WNW 05:57:25 10° NNE night (unlit)
20 Sep - 07:31:51 10° WNW 07:34:44 14° NW 07:37:40 10° NNW visible
20 Sep - 14:33:22 10° N 14:38:33 36° NE 14:43:17 10° ESE daylight
20 Sep - 16:16:19 10° NW 16:20:46 26° WSW 16:24:54 10° SSW daylight
